Weather History for Marathon, FL

Change the Weather History Date:

Sunday, November 13, 2011

  Actual Average Record
Temperature  
Mean Temperature 77 °F 76 °F  
Max Temperature 82 °F 81 °F 87 °F (1997)
Min Temperature 71 °F 71 °F 68 °F (2010)
Degree Days  
Heating Degree Days 0 0  
Month to date heating degree days 0 0  
Since 1 July heating degree days 0 0  
Cooling Degree Days 12 11  
Month to date cooling degree days 132 154  
Year to date cooling degree days 4911 4593  
Growing Degree Days 26 (Base 50)    
Moisture  
Dew Point 68 °F    
Average Humidity 78    
Maximum Humidity 93    
Minimum Humidity 62    
Precipitation  
Precipitation 0.00 in 0.10 in 0.06 in (2004)
Month to date precipitation 0.08 1.47  
Year to date precipitation 35.59 42.80  
Snow  
Snow 0.00 in - - ()
Month to date snowfall 0.0  
Since 1 July snowfall 0.0  
Since 1 September snowfall 0.0  
Snow Depth 0.00 in    
Sea Level Pressure  
Sea Level Pressure 30.11 in    
Wind  
Wind Speed 11 mph (NE)    
Max Wind Speed 17 mph    
Max Gust Speed 24 mph    
Visibility 10 miles    
Events      
T = Trace of Precipitation, MM = Missing Value Source: NWS Daily Summary

Daily Weather History Graph

Daily Weather History Graph

Search for Another Location

Airport:

Trip Planner

Search our weather history database for the weather conditions in past years. The results will help you decide how hot, cold, wet, or windy it might be!

Date:

Astronomy

Nov. 13, 2011 Rise Set
Actual Time 6:38 AM EST 5:37 PM EST
Civil Twilight 6:14 AM EST 6:01 PM EST
Nautical Twilight 5:47 AM EST 6:29 PM EST
Astronomical Twilight 5:20 AM EST 6:56 PM EST
Moon 7:55 PM EST (11/13) 8:59 AM EST (11/13)
Length of Visible Light 11h 46m
Length of Day
10h 59m
Waning Gibbous, 93% of the Moon is Illuminated
Nov 13
Waning Gibbous
Nov 18
Last Quarter
Nov 25
New
Dec 2
First Quarter
Dec 10
Full

Hourly Weather History & Observations

Time (EST) Temp. Heat Index Dew Point Humidity Pressure Visibility Wind Dir Wind Speed Gust Speed Precip Events Conditions
12:53 AM 72.0 °F - 64.9 °F 78% 30.14 in 10.0 mi NE 12.7 mph - N/A   Mostly Cloudy
1:53 AM 72.0 °F - 64.9 °F 78% 30.12 in 10.0 mi NE 13.8 mph - N/A   Partly Cloudy
2:53 AM 72.0 °F - 66.0 °F 81% 30.12 in 10.0 mi NE 9.2 mph - N/A   Mostly Cloudy
3:53 AM 71.1 °F - 66.9 °F 87% 30.11 in 10.0 mi NE 9.2 mph - N/A   Partly Cloudy
4:53 AM 72.0 °F - 66.9 °F 84% 30.11 in 10.0 mi NE 11.5 mph - N/A   Partly Cloudy
5:53 AM 72.0 °F - 66.9 °F 84% 30.11 in 10.0 mi ENE 9.2 mph - N/A   Partly Cloudy
6:53 AM 72.0 °F - 68.0 °F 87% 30.13 in 10.0 mi NE 10.4 mph - N/A   Clear
7:53 AM 73.0 °F - 69.1 °F 87% 30.14 in 10.0 mi NE 9.2 mph - N/A   Clear
8:53 AM 73.9 °F - 68.0 °F 82% 30.16 in 10.0 mi NE 9.2 mph - N/A   Scattered Clouds
9:53 AM 75.0 °F - 69.1 °F 82% 30.17 in 10.0 mi NE 11.5 mph - N/A   Overcast
10:53 AM 78.1 °F - 70.0 °F 76% 30.16 in 10.0 mi NE 10.4 mph - N/A   Mostly Cloudy
11:53 AM 80.1 °F 82.9 °F 69.1 °F 69% 30.14 in 10.0 mi ENE 10.4 mph - N/A   Scattered Clouds
12:53 PM 80.1 °F 82.3 °F 66.9 °F 64% 30.12 in 10.0 mi ENE 17.3 mph 21.9 mph N/A   Mostly Cloudy
1:53 PM 80.1 °F 82.3 °F 66.9 °F 64% 30.10 in 10.0 mi ENE 17.3 mph - N/A   Scattered Clouds
2:53 PM 79.0 °F - 66.9 °F 66% 30.08 in 10.0 mi ENE 12.7 mph - N/A   Overcast
3:53 PM 78.1 °F - 68.0 °F 71% 30.07 in 10.0 mi NE 15.0 mph - N/A   Scattered Clouds
4:53 PM 75.9 °F - 69.1 °F 79% 30.08 in 10.0 mi NE 11.5 mph - N/A   Partly Cloudy
5:53 PM 75.9 °F - 70.0 °F 82% 30.08 in 10.0 mi NE 10.4 mph - N/A   Overcast
6:53 PM 75.0 °F - 70.0 °F 84% 30.10 in 10.0 mi NE 10.4 mph - N/A   Mostly Cloudy
7:53 PM 75.0 °F - 70.0 °F 84% 30.10 in 10.0 mi NE 10.4 mph - N/A   Partly Cloudy
8:53 PM 73.9 °F - 71.1 °F 91% 30.10 in 10.0 mi NE 10.4 mph - N/A   Partly Cloudy
9:53 PM 73.9 °F - 71.1 °F 91% 30.10 in 10.0 mi NE 10.4 mph - N/A   Overcast
10:53 PM 73.9 °F - 71.1 °F 91% 30.10 in 10.0 mi NE 9.2 mph - N/A   Overcast
11:53 PM 73.9 °F - 71.1 °F 91% 30.10 in 10.0 mi NE 9.2 mph - N/A   Mostly Cloudy